Time,TemperatureF,DewpointF,PressureIn,WindDirection,WindDirectionDegrees,WindSpeedMPH,WindSpeedGustMPH,Humidity,HourlyPrecipIn,Conditions,Clouds,dailyrainin,SoftwareType,DateUTC
2013-04-20 00:57:00,33.6,24.6,29.28,West,270,3.1,3.1,69,0.00,,,0.00,WUHU21623XXSP,2013-04-20 05:57:00,
2013-04-20 01:57:00,32.7,24.4,29.28,West,270,2.5,2.5,71,0.00,,,0.00,WUHU21623XXSP,2013-04-20 06:57:00,
2013-04-20 02:57:00,31.6,23.7,29.29,West,270,1.1,1.1,72,0.00,,,0.00,WUHU21623XXSP,2013-04-20 07:57:00,
2013-04-20 03:57:00,31.1,23.8,29.31,West,270,0.0,0.0,74,0.00,,,0.00,WUHU21623XXSP,2013-04-20 08:57:00,
2013-04-20 04:57:00,30.0,23.4,29.34,WNW,293,0.0,0.0,76,0.00,,,0.00,WUHU21623XXSP,2013-04-20 09:57:00,
2013-04-20 05:57:00,29.7,23.4,29.35,ESE,113,0.0,0.0,77,0.00,,,0.00,WUHU21623XXSP,2013-04-20 10:57:00,
2013-04-20 06:57:00,30.0,24.0,29.39,ESE,113,0.0,0.0,78,0.00,,,0.00,WUHU21623XXSP,2013-04-20 11:57:00,
2013-04-20 07:33:00,31.6,25.6,29.41,WNW,292,0.0,0.0,78,0.00,,,0.00,WUHU21623XXSP,2013-04-20 12:33:00,
2013-04-20 07:38:00,31.8,25.8,29.41,West,270,0.0,0.4,78,0.00,,,0.00,WUHU21623XXSP,2013-04-20 12:38:00,
2013-04-20 07:43:00,32.2,26.1,29.41,WNW,292,1.3,1.3,78,0.00,,,0.00,WUHU21623XXSP,2013-04-20 12:43:00,
2013-04-20 07:48:00,32.5,26.4,29.41,NNW,337,0.0,1.3,78,0.00,,,0.00,WUHU21623XXSP,2013-04-20 12:48:00,
2013-04-20 07:53:00,33.1,26.8,29.41,NNW,337,0.0,0.0,78,0.00,,,0.00,WUHU21623XXSP,2013-04-20 12:53:00,
2013-04-20 07:58:00,33.6,26.9,29.41,NNW,337,0.0,0.0,77,0.00,,,0.00,WUHU21623XXSP,2013-04-20 12:58:00,
2013-04-20 08:03:00,33.6,26.8,29.42,NNW,337,0.0,0.0,76,0.00,,,0.00,WUHU21623XXSP,2013-04-20 13:03:00,
2013-04-20 08:08:00,34.2,27.3,29.42,West,270,1.6,1.6,76,0.00,,,0.00,WUHU21623XXSP,2013-04-20 13:08:00,
2013-04-20 08:13:00,34.3,27.5,29.43,NNW,337,0.0,1.6,76,0.00,,,0.00,WUHU21623XXSP,2013-04-20 13:13:00,
2013-04-20 08:18:00,34.5,27.3,29.43,West,270,0.9,0.9,75,0.00,,,0.00,WUHU21623XXSP,2013-04-20 13:18:00,
2013-04-20 08:23:00,35.2,27.7,29.44,West,270,0.7,0.9,75,0.00,,,0.00,WUHU21623XXSP,2013-04-20 13:23:00,
2013-04-20 08:28:00,35.4,28.2,29.44,West,270,1.8,1.8,75,0.00,,,0.00,WUHU21623XXSP,2013-04-20 13:28:00,
2013-04-20 08:33:00,35.8,28.3,29.44,WNW,292,3.8,3.8,74,0.00,,,0.00,WUHU21623XXSP,2013-04-20 13:33:00,
2013-04-20 08:38:00,35.8,28.3,29.44,West,270,3.4,3.8,74,0.00,,,0.00,WUHU21623XXSP,2013-04-20 13:38:00,
2013-04-20 08:43:00,35.8,28.3,29.44,West,270,0.2,3.4,74,0.00,,,0.00,WUHU21623XXSP,2013-04-20 13:43:00,
2013-04-20 08:48:00,36.1,28.6,29.45,WNW,292,5.4,5.4,74,0.00,,,0.00,WUHU21623XXSP,2013-04-20 13:48:00,
2013-04-20 08:53:00,36.5,28.5,29.45,NNW,337,2.5,5.4,73,0.00,,,0.00,WUHU21623XXSP,2013-04-20 13:53:00,
2013-04-20 08:58:00,36.7,28.8,29.46,West,270,0.0,2.5,73,0.00,,,0.00,WUHU21623XXSP,2013-04-20 13:58:00,
2013-04-20 09:03:00,36.9,28.7,29.46,North,0,0.0,0.0,72,0.00,,,0.00,WUHU21623XXSP,2013-04-20 14:03:00,
2013-04-20 09:08:00,37.4,29.2,29.46,West,270,0.0,0.9,72,0.00,,,0.00,WUHU21623XXSP,2013-04-20 14:08:00,
2013-04-20 09:13:00,37.6,29.1,29.46,WNW,292,0.0,0.9,71,0.00,,,0.00,WUHU21623XXSP,2013-04-20 14:13:00,
2013-04-20 09:18:00,37.9,29.4,29.46,West,270,0.0,0.0,71,0.00,,,0.00,WUHU21623XXSP,2013-04-20 14:18:00,
2013-04-20 09:23:00,38.3,29.7,29.46,NNE,22,0.0,0.9,71,0.00,,,0.00,WUHU21623XXSP,2013-04-20 14:23:00,
2013-04-20 09:28:00,38.5,29.9,29.47,NNE,22,0.0,0.9,71,0.00,,,0.00,WUHU21623XXSP,2013-04-20 14:28:00,
2013-04-20 09:33:00,39.0,30.0,29.47,NW,315,0.7,0.7,70,0.00,,,0.00,WUHU21623XXSP,2013-04-20 14:33:00,
2013-04-20 09:38:00,39.4,30.4,29.47,WNW,292,1.6,1.6,70,0.00,,,0.00,WUHU21623XXSP,2013-04-20 14:38:00,
2013-04-20 09:43:00,39.4,30.0,29.47,NW,315,2.9,2.9,69,0.00,,,0.00,WUHU21623XXSP,2013-04-20 14:43:00,
2013-04-20 09:48:00,39.6,30.2,29.48,West,270,4.0,4.0,69,0.00,,,0.00,WUHU21623XXSP,2013-04-20 14:48:00,
2013-04-20 09:53:00,39.9,30.4,29.47,SSE,157,2.7,4.0,69,0.00,,,0.00,WUHU21623XXSP,2013-04-20 14:53:00,
2013-04-20 09:58:00,40.1,30.7,29.48,West,270,0.0,2.7,69,0.00,,,0.00,WUHU21623XXSP,2013-04-20 14:58:00,
2013-04-20 10:03:00,40.6,30.9,29.48,SW,225,4.7,4.7,68,0.00,,,0.00,WUHU21623XXSP,2013-04-20 15:03:00,
2013-04-20 10:08:00,41.5,31.8,29.49,WSW,247,4.0,5.4,68,0.00,,,0.00,WUHU21623XXSP,2013-04-20 15:08:00,
2013-04-20 10:13:00,41.9,32.1,29.49,SW,225,5.4,5.4,68,0.00,,,0.00,WUHU21623XXSP,2013-04-20 15:13:00,
2013-04-20 10:18:00,42.4,31.9,29.49,SW,225,5.4,5.4,67,0.00,,,0.00,WUHU21623XXSP,2013-04-20 15:18:00,
2013-04-20 10:23:00,43.0,32.4,29.49,SW,225,0.0,5.4,66,0.00,,,0.00,WUHU21623XXSP,2013-04-20 15:23:00,
2013-04-20 10:28:00,43.5,32.5,29.49,SW,225,0.0,5.4,66,0.00,,,0.00,WUHU21623XXSP,2013-04-20 15:28:00,
2013-04-20 10:33:00,43.9,32.8,29.49,West,270,3.1,3.8,65,0.00,,,0.00,WUHU21623XXSP,2013-04-20 15:33:00,
2013-04-20 10:37:00,43.9,32.5,29.49,SW,225,6.0,6.0,64,0.00,,,0.00,WUHU21623XXSP,2013-04-20 15:37:00,
2013-04-20 10:42:00,44.4,32.6,29.49,NW,315,1.6,6.0,63,0.00,,,0.00,WUHU21623XXSP,2013-04-20 15:42:00,
2013-04-20 10:47:00,44.6,32.4,29.49,SW,225,4.9,4.9,62,0.00,,,0.00,WUHU21623XXSP,2013-04-20 15:47:00,
2013-04-20 10:52:00,44.4,32.6,29.49,West,270,0.0,4.9,61,0.00,,,0.00,WUHU21623XXSP,2013-04-20 15:52:00,
2013-04-20 10:57:00,44.1,31.5,29.50,WSW,247,3.4,4.9,61,0.00,,,0.00,WUHU21623XXSP,2013-04-20 15:57:00,
2013-04-20 11:02:00,44.4,32.0,29.50,WSW,247,3.4,3.4,61,0.00,,,0.00,WUHU21623XXSP,2013-04-20 16:02:00,
2013-04-20 11:07:00,45.1,32.5,29.50,SW,225,7.2,7.2,60,0.00,,,0.00,WUHU21623XXSP,2013-04-20 16:07:00,
2013-04-20 11:12:00,45.5,32.5,29.50,SW,225,9.2,9.2,60,0.00,,,0.00,WUHU21623XXSP,2013-04-20 16:12:00,
2013-04-20 11:17:00,46.2,32.6,29.51,West,270,7.2,9.2,59,0.00,,,0.00,WUHU21623XXSP,2013-04-20 16:17:00,
2013-04-20 11:22:00,45.7,31.3,29.51,West,270,4.7,7.2,57,0.00,,,0.00,WUHU21623XXSP,2013-04-20 16:22:00,
2013-04-20 11:27:00,46.0,31.6,29.50,WNW,292,7.2,7.2,57,0.00,,,0.00,WUHU21623XXSP,2013-04-20 16:27:00,
2013-04-20 11:32:00,45.3,30.5,29.51,NNW,337,5.4,7.2,56,0.00,,,0.00,WUHU21623XXSP,2013-04-20 16:32:00,
2013-04-20 11:37:00,45.5,30.2,29.51,WNW,292,3.8,5.4,55,0.00,,,0.00,WUHU21623XXSP,2013-04-20 16:37:00,
2013-04-20 11:42:00,45.9,30.5,29.51,North,0,2.9,6.0,55,0.00,,,0.00,WUHU21623XXSP,2013-04-20 16:42:00,
2013-04-20 11:47:00,45.7,30.4,29.51,West,270,3.4,6.0,55,0.00,,,0.00,WUHU21623XXSP,2013-04-20 16:47:00,
2013-04-20 11:52:00,45.1,29.4,29.51,NNW,337,3.6,4.3,54,0.00,,,0.00,WUHU21623XXSP,2013-04-20 16:52:00,
2013-04-20 11:57:00,45.3,29.4,29.51,NNW,337,3.6,4.3,54,0.00,,,0.00,WUHU21623XXSP,2013-04-20 16:57:00,
2013-04-20 12:02:00,46.0,30.2,29.51,North,0,4.3,4.3,54,0.00,,,0.00,WUHU21623XXSP,2013-04-20 17:02:00,
2013-04-20 12:07:00,46.6,30.3,29.51,WNW,292,1.8,8.7,53,0.00,,,0.00,WUHU21623XXSP,2013-04-20 17:07:00,
2013-04-20 12:12:00,46.2,30.3,29.51,NW,315,1.3,8.7,53,0.00,,,0.00,WUHU21623XXSP,2013-04-20 17:12:00,
2013-04-20 12:17:00,46.9,31.1,29.50,WSW,247,4.5,6.7,54,0.00,,,0.00,WUHU21623XXSP,2013-04-20 17:17:00,
2013-04-20 12:22:00,47.1,29.9,29.50,NW,315,0.0,6.7,51,0.00,,,0.00,WUHU21623XXSP,2013-04-20 17:22:00,
2013-04-20 12:27:00,47.1,29.9,29.50,NNW,337,1.1,4.5,51,0.00,,,0.00,WUHU21623XXSP,2013-04-20 17:27:00,
2013-04-20 12:32:00,47.1,29.4,29.50,West,270,0.0,1.1,50,0.00,,,0.00,WUHU21623XXSP,2013-04-20 17:32:00,
2013-04-20 12:37:00,47.3,30.0,29.50,WSW,247,2.7,7.8,51,0.00,,,0.00,WUHU21623XXSP,2013-04-20 17:37:00,
2013-04-20 12:42:00,47.5,29.7,29.50,North,0,1.6,7.8,50,0.00,,,0.00,WUHU21623XXSP,2013-04-20 17:42:00,
2013-04-20 12:47:00,47.3,29.0,29.50,West,270,3.1,3.8,49,0.00,,,0.00,WUHU21623XXSP,2013-04-20 17:47:00,
2013-04-20 12:52:00,47.7,30.2,29.50,West,270,0.0,3.1,51,0.00,,,0.00,WUHU21623XXSP,2013-04-20 17:52:00,
2013-04-20 12:57:00,48.2,30.8,29.50,WNW,292,0.0,2.7,51,0.00,,,0.00,WUHU21623XXSP,2013-04-20 17:57:00,
2013-04-20 13:02:00,48.7,31.2,29.50,WNW,292,0.0,2.2,51,0.00,,,0.00,WUHU21623XXSP,2013-04-20 18:02:00,
2013-04-20 13:07:00,48.4,30.0,29.50,NW,315,0.9,5.1,49,0.00,,,0.00,WUHU21623XXSP,2013-04-20 18:07:00,
2013-04-20 13:12:00,48.0,30.2,29.50,West,270,4.7,5.1,50,0.00,,,0.00,WUHU21623XXSP,2013-04-20 18:12:00,
2013-04-20 13:17:00,48.4,29.5,29.51,North,0,1.3,4.7,48,0.00,,,0.00,WUHU21623XXSP,2013-04-20 18:17:00,
2013-04-20 13:22:00,48.7,29.3,29.50,SW,225,7.6,7.6,47,0.00,,,0.00,WUHU21623XXSP,2013-04-20 18:22:00,
2013-04-20 13:27:00,48.9,30.0,29.51,WNW,292,4.7,7.6,48,0.00,,,0.00,WUHU21623XXSP,2013-04-20 18:27:00,
2013-04-20 13:32:00,48.9,29.4,29.51,NNW,337,0.0,4.7,47,0.00,,,0.00,WUHU21623XXSP,2013-04-20 18:32:00,
2013-04-20 13:37:00,48.9,29.4,29.51,WSW,247,3.4,6.7,47,0.00,,,0.00,WUHU21623XXSP,2013-04-20 18:37:00,
2013-04-20 13:42:00,49.3,30.9,29.51,WNW,292,3.6,6.7,49,0.00,,,0.00,WUHU21623XXSP,2013-04-20 18:42:00,
2013-04-20 13:47:00,50.2,31.2,29.51,WSW,247,4.7,5.6,48,0.00,,,0.00,WUHU21623XXSP,2013-04-20 18:47:00,
2013-04-20 13:52:00,50.9,31.7,29.50,West,270,3.8,4.7,48,0.00,,,0.00,WUHU21623XXSP,2013-04-20 18:52:00,
2013-04-20 13:57:00,51.1,31.5,29.51,SW,225,4.9,4.9,47,0.00,,,0.00,WUHU21623XXSP,2013-04-20 18:57:00,
2013-04-20 14:02:00,50.7,31.2,29.51,SW,225,4.9,4.9,47,0.00,,,0.00,WUHU21623XXSP,2013-04-20 19:02:00,
2013-04-20 14:07:00,50.7,31.2,29.51,SW,225,2.5,4.9,47,0.00,,,0.00,WUHU21623XXSP,2013-04-20 19:07:00,
2013-04-20 14:12:00,51.1,32.0,29.51,WSW,247,4.3,4.3,48,0.00,,,0.00,WUHU21623XXSP,2013-04-20 19:12:00,
2013-04-20 14:17:00,51.6,32.0,29.51,West,270,6.9,6.9,47,0.00,,,0.00,WUHU21623XXSP,2013-04-20 19:17:00,
2013-04-20 14:22:00,52.0,31.7,29.51,West,270,3.6,6.9,46,0.00,,,0.00,WUHU21623XXSP,2013-04-20 19:22:00,
2013-04-20 14:27:00,51.6,31.0,29.51,SW,225,0.0,4.0,45,0.00,,,0.00,WUHU21623XXSP,2013-04-20 19:27:00,
2013-04-20 14:32:00,51.8,32.1,29.50,SW,225,4.5,4.5,47,0.00,,,0.00,WUHU21623XXSP,2013-04-20 19:32:00,
2013-04-20 14:37:00,52.5,32.5,29.51,WSW,247,6.0,6.0,47,0.00,,,0.00,WUHU21623XXSP,2013-04-20 19:37:00,
2013-04-20 14:42:00,52.9,32.0,29.51,NNE,22,2.5,6.0,45,0.00,,,0.00,WUHU21623XXSP,2013-04-20 19:42:00,
2013-04-20 14:47:00,52.5,31.1,29.51,NNE,22,0.0,5.6,44,0.00,,,0.00,WUHU21623XXSP,2013-04-20 19:47:00,
2013-04-20 14:52:00,51.8,30.8,29.50,NNE,22,6.9,6.9,43,0.00,,,0.00,WUHU21623XXSP,2013-04-20 19:52:00,
2013-04-20 14:57:00,51.1,29.8,29.50,NNW,337,2.0,6.9,44,0.00,,,0.00,WUHU21623XXSP,2013-04-20 19:57:00,
2013-04-20 15:02:00,50.7,29.5,29.50,NE,45,3.6,6.0,44,0.00,,,0.00,WUHU21623XXSP,2013-04-20 20:02:00,
2013-04-20 15:07:00,50.5,29.3,29.50,North,0,0.7,5.6,44,0.00,,,0.00,WUHU21623XXSP,2013-04-20 20:07:00,
2013-04-20 15:12:00,50.5,29.3,29.50,NE,45,4.3,4.3,45,0.00,,,0.00,WUHU21623XXSP,2013-04-20 20:12:00,
2013-04-20 15:17:00,50.7,29.5,29.50,WSW,247,1.3,5.1,44,0.00,,,0.00,WUHU21623XXSP,2013-04-20 20:17:00,
2013-04-20 15:22:00,50.5,28.2,29.50,North,0,0.0,5.1,42,0.00,,,0.00,WUHU21623XXSP,2013-04-20 20:22:00,
2013-04-20 15:27:00,50.7,28.2,29.50,WNW,292,0.0,4.5,44,0.00,,,0.00,WUHU21623XXSP,2013-04-20 20:27:00,
2013-04-20 15:32:00,51.1,29.2,29.50,NNE,22,0.0,0.0,43,0.00,,,0.00,WUHU21623XXSP,2013-04-20 20:32:00,
2013-04-20 15:37:00,51.4,29.6,29.50,WSW,247,6.5,6.5,43,0.00,,,0.00,WUHU21623XXSP,2013-04-20 20:37:00,
2013-04-20 15:42:00,52.3,30.9,29.50,WSW,247,0.0,6.5,44,0.00,,,0.00,WUHU21623XXSP,2013-04-20 20:42:00,
2013-04-20 15:47:00,52.3,29.8,29.50,NW,315,0.0,6.5,42,0.00,,,0.00,WUHU21623XXSP,2013-04-20 20:47:00,
2013-04-20 15:52:00,52.2,30.4,29.49,NW,315,0.0,4.0,43,0.00,,,0.00,WUHU21623XXSP,2013-04-20 20:52:00,
2013-04-20 15:57:00,52.5,30.5,29.49,NNW,337,1.6,1.6,43,0.00,,,0.00,WUHU21623XXSP,2013-04-20 20:57:00,
2013-04-20 16:02:00,52.3,30.4,29.49,ESE,112,6.0,6.0,44,0.00,,,0.00,WUHU21623XXSP,2013-04-20 21:02:00,
2013-04-20 16:07:00,52.3,30.4,29.50,NE,45,0.0,6.0,43,0.00,,,0.00,WUHU21623XXSP,2013-04-20 21:07:00,
2013-04-20 16:12:00,52.3,30.9,29.49,South,180,0.0,5.6,44,0.00,,,0.00,WUHU21623XXSP,2013-04-20 21:12:00,
2013-04-20 16:17:00,52.9,30.9,29.49,West,270,2.9,5.6,43,0.00,,,0.00,WUHU21623XXSP,2013-04-20 21:17:00,
2013-04-20 16:22:00,53.2,30.6,29.49,North,0,0.0,2.9,42,0.00,,,0.00,WUHU21623XXSP,2013-04-20 21:22:00,
2013-04-20 16:27:00,52.9,30.3,29.49,NNW,337,2.2,6.5,42,0.00,,,0.00,WUHU21623XXSP,2013-04-20 21:27:00,
2013-04-20 16:32:00,52.7,30.1,29.49,NNW,337,0.0,6.5,42,0.00,,,0.00,WUHU21623XXSP,2013-04-20 21:32:00,
2013-04-20 16:37:00,52.7,30.1,29.49,SE,135,1.8,1.8,42,0.00,,,0.00,WUHU21623XXSP,2013-04-20 21:37:00,
2013-04-20 16:42:00,53.1,31.0,29.49,NE,45,0.0,1.8,43,0.00,,,0.00,WUHU21623XXSP,2013-04-20 21:42:00,
2013-04-20 16:47:00,53.4,31.4,29.49,NE,45,4.3,4.3,43,0.00,,,0.00,WUHU21623XXSP,2013-04-20 21:47:00,
2013-04-20 16:52:00,53.8,31.1,29.49,NE,45,0.0,4.3,42,0.00,,,0.00,WUHU21623XXSP,2013-04-20 21:52:00,
2013-04-20 16:57:00,53.8,31.1,29.49,NE,45,0.4,0.4,42,0.00,,,0.00,WUHU21623XXSP,2013-04-20 21:57:00,
2013-04-20 17:02:00,53.8,30.6,29.49,NE,45,0.0,0.4,41,0.00,,,0.00,WUHU21623XXSP,2013-04-20 22:02:00,
2013-04-20 17:07:00,53.4,30.2,29.49,SE,135,1.1,1.1,41,0.00,,,0.00,WUHU21623XXSP,2013-04-20 22:07:00,
2013-04-20 17:12:00,53.4,30.8,29.49,NE,45,3.1,4.3,42,0.00,,,0.00,WUHU21623XXSP,2013-04-20 22:12:00,
2013-04-20 17:17:00,52.9,30.3,29.49,ESE,112,0.0,4.3,42,0.00,,,0.00,WUHU21623XXSP,2013-04-20 22:17:00,
2013-04-20 17:22:00,52.9,30.3,29.49,ESE,112,0.0,0.0,42,0.00,,,0.00,WUHU21623XXSP,2013-04-20 22:22:00,
2013-04-20 17:27:00,53.2,30.5,29.49,NE,45,0.7,0.7,42,0.00,,,0.00,WUHU21623XXSP,2013-04-20 22:27:00,
2013-04-20 17:32:00,53.2,30.1,29.49,NNE,22,4.0,4.0,41,0.00,,,0.00,WUHU21623XXSP,2013-04-20 22:32:00,
2013-04-20 17:37:00,52.5,29.4,29.49,NE,45,1.8,4.7,41,0.00,,,0.00,WUHU21623XXSP,2013-04-20 22:37:00,
2013-04-20 17:42:00,52.5,30.0,29.49,NNE,22,4.3,4.7,42,0.00,,,0.00,WUHU21623XXSP,2013-04-20 22:42:00,
2013-04-20 17:47:00,52.3,29.3,29.49,NE,45,0.4,4.3,41,0.00,,,0.00,WUHU21623XXSP,2013-04-20 22:47:00,
2013-04-20 17:52:00,52.0,29.5,29.49,NE,45,0.0,3.6,42,0.00,,,0.00,WUHU21623XXSP,2013-04-20 22:52:00,
2013-04-20 17:57:00,52.0,30.1,29.49,ESE,112,0.0,2.2,43,0.00,,,0.00,WUHU21623XXSP,2013-04-20 22:57:00,
2013-04-20 18:02:00,52.0,29.5,29.50,ENE,67,1.3,1.3,42,0.00,,,0.00,WUHU21623XXSP,2013-04-20 23:02:00,
2013-04-20 18:07:00,51.6,29.7,29.49,SE,135,0.0,3.4,43,0.00,,,0.00,WUHU21623XXSP,2013-04-20 23:07:00,
2013-04-20 18:12:00,52.0,30.1,29.50,SE,135,0.0,3.8,43,0.00,,,0.00,WUHU21623XXSP,2013-04-20 23:12:00,
2013-04-20 18:17:00,52.0,30.1,29.49,SE,135,0.0,3.8,43,0.00,,,0.00,WUHU21623XXSP,2013-04-20 23:17:00,
2013-04-20 18:22:00,52.0,30.1,29.49,NE,45,0.0,1.3,43,0.00,,,0.00,WUHU21623XXSP,2013-04-20 23:22:00,
2013-04-20 18:27:00,51.1,28.7,29.49,NE,45,0.0,2.9,42,0.00,,,0.00,WUHU21623XXSP,2013-04-20 23:27:00,
2013-04-20 18:32:00,50.7,28.9,29.50,NE,45,0.0,2.9,43,0.00,,,0.00,WUHU21623XXSP,2013-04-20 23:32:00,
2013-04-20 18:37:00,50.5,29.3,29.50,NE,45,0.0,0.0,44,0.00,,,0.00,WUHU21623XXSP,2013-04-20 23:37:00,
2013-04-20 18:42:00,50.4,29.2,29.50,SE,135,1.3,1.3,44,0.00,,,0.00,WUHU21623XXSP,2013-04-20 23:42:00,
2013-04-20 18:47:00,50.2,29.0,29.50,SE,135,0.0,1.3,44,0.00,,,0.00,WUHU21623XXSP,2013-04-20 23:47:00,
2013-04-20 18:52:00,49.8,29.2,29.50,SE,135,0.0,1.3,45,0.00,,,0.00,WUHU21623XXSP,2013-04-20 23:52:00,
2013-04-20 18:57:00,49.6,29.0,29.50,SE,135,0.0,0.0,45,0.00,,,0.00,WUHU21623XXSP,2013-04-20 23:57:00,
2013-04-20 19:02:00,49.6,29.0,29.51,SE,135,0.7,0.7,45,0.00,,,0.00,WUHU21623XXSP,2013-04-21 00:02:00,
2013-04-20 19:07:00,49.5,29.4,29.50,SE,135,1.8,1.8,46,0.00,,,0.00,WUHU21623XXSP,2013-04-21 00:07:00,
2013-04-20 19:12:00,49.5,28.9,29.51,SE,135,0.0,1.8,45,0.00,,,0.00,WUHU21623XXSP,2013-04-21 00:12:00,
2013-04-20 19:17:00,49.5,28.9,29.51,SE,135,0.0,0.0,45,0.00,,,0.00,WUHU21623XXSP,2013-04-21 00:17:00,
2013-04-20 19:22:00,49.3,28.7,29.51,SE,135,0.0,0.0,45,0.00,,,0.00,WUHU21623XXSP,2013-04-21 00:22:00,
2013-04-20 19:27:00,48.7,28.7,29.51,East,90,0.0,0.0,46,0.00,,,0.00,WUHU21623XXSP,2013-04-21 00:27:00,
2013-04-20 19:32:00,48.4,28.4,29.51,ESE,112,0.0,0.0,46,0.00,,,0.00,WUHU21623XXSP,2013-04-21 00:32:00,
2013-04-20 19:37:00,47.8,28.1,29.51,ESE,112,0.0,0.0,46,0.00,,,0.00,WUHU21623XXSP,2013-04-21 00:37:00,
2013-04-20 19:42:00,47.1,27.8,29.51,East,90,0.0,0.0,47,0.00,,,0.00,WUHU21623XXSP,2013-04-21 00:42:00,
2013-04-20 19:47:00,46.8,27.5,29.52,East,90,0.9,0.9,47,0.00,,,0.00,WUHU21623XXSP,2013-04-21 00:47:00,
2013-04-20 19:52:00,46.6,27.3,29.52,East,90,0.0,0.9,47,0.00,,,0.00,WUHU21623XXSP,2013-04-21 00:52:00,
2013-04-20 19:57:00,46.0,27.4,29.53,East,90,0.0,0.0,48,0.00,,,0.00,WUHU21623XXSP,2013-04-21 00:57:00,
2013-04-20 20:02:00,45.7,27.6,29.53,ESE,112,0.0,0.0,49,0.00,,,0.00,WUHU21623XXSP,2013-04-21 01:02:00,
2013-04-20 20:07:00,45.5,27.4,29.53,ESE,112,0.0,0.0,49,0.00,,,0.00,WUHU21623XXSP,2013-04-21 01:07:00,
2013-04-20 20:12:00,45.1,27.1,29.53,ESE,112,0.0,0.0,49,0.00,,,0.00,WUHU21623XXSP,2013-04-21 01:12:00,
2013-04-20 20:17:00,45.0,26.9,29.53,ESE,112,0.0,0.0,49,0.00,,,0.00,WUHU21623XXSP,2013-04-21 01:17:00,
2013-04-20 20:22:00,44.8,27.3,29.53,ESE,112,0.0,0.0,50,0.00,,,0.00,WUHU21623XXSP,2013-04-21 01:22:00,
2013-04-20 20:27:00,44.4,27.0,29.54,ESE,112,0.0,0.0,50,0.00,,,0.00,WUHU21623XXSP,2013-04-21 01:27:00,
2013-04-20 20:32:00,44.2,26.8,29.54,ESE,112,0.0,0.0,50,0.00,,,0.00,WUHU21623XXSP,2013-04-21 01:32:00,
2013-04-20 20:37:00,43.9,26.5,29.54,ESE,112,0.0,0.0,50,0.00,,,0.00,WUHU21623XXSP,2013-04-21 01:37:00,
2013-04-20 20:42:00,43.7,26.8,29.55,ESE,112,0.0,4.0,51,0.00,,,0.00,WUHU21623XXSP,2013-04-21 01:42:00,
2013-04-20 20:47:00,43.5,26.6,29.55,ESE,112,0.0,4.0,51,0.00,,,0.00,WUHU21623XXSP,2013-04-21 01:47:00,
2013-04-20 20:52:00,43.3,26.9,29.55,ESE,112,0.0,0.0,52,0.00,,,0.00,WUHU21623XXSP,2013-04-21 01:52:00,
2013-04-20 20:56:00,43.2,26.7,29.56,ESE,112,0.0,0.0,52,0.00,,,0.00,WUHU21623XXSP,2013-04-21 01:56:00,
2013-04-20 21:01:00,43.0,26.5,29.56,ESE,112,0.0,0.0,52,0.00,,,0.00,WUHU21623XXSP,2013-04-21 02:01:00,
2013-04-20 21:06:00,43.0,27.0,29.56,ESE,112,0.0,0.0,53,0.00,,,0.00,WUHU21623XXSP,2013-04-21 02:06:00,
2013-04-20 21:11:00,42.6,26.6,29.56,ESE,112,0.7,0.7,53,0.00,,,0.00,WUHU21623XXSP,2013-04-21 02:11:00,
2013-04-20 21:16:00,42.4,26.5,29.56,ESE,112,0.7,1.6,53,0.00,,,0.00,WUHU21623XXSP,2013-04-21 02:16:00,
2013-04-20 21:21:00,42.4,26.9,29.56,ESE,112,0.0,1.6,54,0.00,,,0.00,WUHU21623XXSP,2013-04-21 02:21:00,
2013-04-20 21:26:00,42.1,26.5,29.56,SE,135,1.8,1.8,54,0.00,,,0.00,WUHU21623XXSP,2013-04-21 02:26:00,
2013-04-20 21:31:00,42.1,26.5,29.56,SE,135,0.0,1.8,54,0.00,,,0.00,WUHU21623XXSP,2013-04-21 02:31:00,
2013-04-20 21:36:00,41.9,26.8,29.56,SE,135,0.0,0.0,55,0.00,,,0.00,WUHU21623XXSP,2013-04-21 02:36:00,
2013-04-20 21:41:00,41.7,26.7,29.56,SE,135,1.8,1.8,55,0.00,,,0.00,WUHU21623XXSP,2013-04-21 02:41:00,
2013-04-20 21:46:00,41.5,26.5,29.56,SE,135,0.0,1.8,55,0.00,,,0.00,WUHU21623XXSP,2013-04-21 02:46:00,
2013-04-20 21:51:00,41.5,26.5,29.56,SE,135,0.0,0.0,55,0.00,,,0.00,WUHU21623XXSP,2013-04-21 02:51:00,
2013-04-20 21:56:00,41.4,26.7,29.56,SE,135,0.0,1.3,56,0.00,,,0.00,WUHU21623XXSP,2013-04-21 02:56:00,
2013-04-20 22:01:00,41.4,26.7,29.56,ESE,112,1.6,2.7,56,0.00,,,0.00,WUHU21623XXSP,2013-04-21 03:01:00,
2013-04-20 22:06:00,41.2,26.6,29.55,SE,135,0.0,2.7,56,0.00,,,0.00,WUHU21623XXSP,2013-04-21 03:06:00,
2013-04-20 22:11:00,41.2,26.6,29.56,SE,135,0.0,1.3,56,0.00,,,0.00,WUHU21623XXSP,2013-04-21 03:11:00,
2013-04-20 22:16:00,41.2,26.6,29.56,SE,135,0.0,0.0,56,0.00,,,0.00,WUHU21623XXSP,2013-04-21 03:16:00,
2013-04-20 22:21:00,41.0,26.4,29.56,SE,135,0.0,0.0,56,0.00,,,0.00,WUHU21623XXSP,2013-04-21 03:21:00,
2013-04-20 22:26:00,40.8,26.7,29.56,SE,135,0.0,0.0,57,0.00,,,0.00,WUHU21623XXSP,2013-04-21 03:26:00,
2013-04-20 22:31:00,40.6,26.5,29.56,SE,135,1.6,1.6,57,0.00,,,0.00,WUHU21623XXSP,2013-04-21 03:31:00,
2013-04-20 22:36:00,40.6,26.5,29.56,ESE,112,0.0,1.6,57,0.00,,,0.00,WUHU21623XXSP,2013-04-21 03:36:00,
2013-04-20 22:41:00,40.3,26.2,29.56,SSE,157,0.0,3.1,57,0.00,,,0.00,WUHU21623XXSP,2013-04-21 03:41:00,
2013-04-20 22:46:00,40.3,26.6,29.56,SE,135,0.0,3.1,58,0.00,,,0.00,WUHU21623XXSP,2013-04-21 03:46:00,
2013-04-20 22:51:00,40.3,26.6,29.56,SE,135,0.0,0.0,58,0.00,,,0.00,WUHU21623XXSP,2013-04-21 03:51:00,
2013-04-20 22:56:00,40.1,26.4,29.56,SE,135,0.0,0.0,58,0.00,,,0.00,WUHU21623XXSP,2013-04-21 03:56:00,
2013-04-20 23:01:00,39.9,26.3,29.56,SE,135,5.4,5.4,58,0.00,,,0.00,WUHU21623XXSP,2013-04-21 04:01:00,
2013-04-20 23:06:00,39.9,26.7,29.56,SE,135,0.0,5.4,59,0.00,,,0.00,WUHU21623XXSP,2013-04-21 04:06:00,
2013-04-20 23:11:00,39.9,26.7,29.57,SE,135,0.0,6.5,59,0.00,,,0.00,WUHU21623XXSP,2013-04-21 04:11:00,
2013-04-20 23:16:00,39.7,26.5,29.57,SE,135,0.0,6.5,59,0.00,,,0.00,WUHU21623XXSP,2013-04-21 04:16:00,
2013-04-20 23:57:00,38.8,26.6,29.57,SE,135,0.4,0.4,61,0.00,,,0.00,WUHU21623XXSP,2013-04-21 04:57:00,